Location: Famechon
(49.7599°N, 2.0615°E)
Time: 17:47:27
(UTC+00:00)

Cosmos 2278 Rocket - Pass Details

Date: 03 February 2023
Orbit: 841 x 845 km, 71.0° (Epoch: 25 March)

Event Time Altitude Azimuth Distance (km) Brightness Sun altitude
Rises 19:54:26 0° 331° (NNW) 3,417 5.9 -29.9°
Reaches altitude 10° 19:56:54 10° 333° (NNW) 2,478 5.0 -30.3°
Enters shadow 20:00:50 46° 344° (NNW) 1,135 2.9 -31.0°
